TimeCST,TemperatureF,Dew PointF,Humidity,Sea Level PressureIn,VisibilityMPH,Wind Direction,Wind SpeedMPH,Gust SpeedMPH,PrecipitationIn,Events,Conditions,WindDirDegrees,DateUTC
12:53 AM,17.1,15.1,92,30.45,6.0,SSW,8.1,-,N/A,,Clear,210,2013-01-04 06:53:00
1:53 AM,19.0,16.0,88,30.45,8.0,SSW,8.1,-,N/A,,Clear,210,2013-01-04 07:53:00
2:53 AM,17.1,15.1,92,30.45,9.0,SSW,6.9,-,N/A,,Clear,210,2013-01-04 08:53:00
3:53 AM,15.1,12.0,88,30.44,10.0,South,8.1,-,N/A,,Clear,190,2013-01-04 09:53:00
4:53 AM,15.1,12.0,88,30.42,10.0,South,6.9,-,N/A,,Clear,170,2013-01-04 10:53:00
5:53 AM,17.1,14.0,88,30.40,10.0,South,9.2,-,N/A,,Clear,190,2013-01-04 11:53:00
6:53 AM,17.1,12.9,84,30.40,10.0,South,8.1,-,N/A,,Clear,180,2013-01-04 12:53:00
7:53 AM,19.0,15.1,85,30.42,10.0,South,9.2,-,N/A,,Clear,180,2013-01-04 13:53:00
8:53 AM,24.1,19.9,84,30.42,10.0,SSW,9.2,-,N/A,,Clear,200,2013-01-04 14:53:00
9:53 AM,28.9,23.0,78,30.42,10.0,SSW,11.5,-,N/A,,Clear,200,2013-01-04 15:53:00
10:53 AM,33.1,24.1,70,30.41,10.0,SSW,18.4,-,N/A,,Clear,200,2013-01-04 16:53:00
11:53 AM,36.0,26.1,67,30.38,10.0,SSW,13.8,-,N/A,,Clear,200,2013-01-04 17:53:00
12:53 PM,37.9,27.0,65,30.35,10.0,SSW,11.5,-,N/A,,Clear,200,2013-01-04 18:53:00
1:53 PM,42.1,28.0,58,30.32,10.0,SSW,13.8,-,N/A,,Clear,210,2013-01-04 19:53:00
2:53 PM,44.1,28.0,53,30.30,10.0,SSW,12.7,-,N/A,,Clear,210,2013-01-04 20:53:00
3:53 PM,44.1,26.1,49,30.30,10.0,SSW,12.7,-,N/A,,Clear,210,2013-01-04 21:53:00
4:53 PM,39.9,26.1,58,30.30,10.0,SSW,9.2,-,N/A,,Clear,200,2013-01-04 22:53:00
5:53 PM,34.0,26.1,73,30.30,10.0,South,9.2,27.6,N/A,,Clear,190,2013-01-04 23:53:00
6:53 PM,30.9,24.1,76,30.31,10.0,South,8.1,-,N/A,,Clear,190,2013-01-05 00:53:00
7:53 PM,33.1,25.0,72,30.30,10.0,South,11.5,-,N/A,,Clear,170,2013-01-05 01:53:00
8:53 PM,32.0,24.1,73,30.28,10.0,South,12.7,-,N/A,,Clear,190,2013-01-05 02:53:00
9:53 PM,32.0,24.1,73,30.27,10.0,South,12.7,-,N/A,,Clear,190,2013-01-05 03:53:00
10:53 PM,30.9,24.1,76,30.27,10.0,South,9.2,-,N/A,,Clear,180,2013-01-05 04:53:00
11:53 PM,30.9,25.0,79,30.27,10.0,South,11.5,-,N/A,,Partly Cloudy,180,2013-01-05 05:53:00